Location: Mizzole
(45.4833°N, 11.0500°E)
Time: 19:30:35
(UTC+00:00)

SJ 16-02 - Pass Details

Date: 21 October 2019
Orbit: 607 x 616 km, 75.0° (Epoch: 17 November)

Event Time Altitude Azimuth Distance (km) Brightness Sun altitude
Rises 19:59:26 0° 325° (NW) 2,877 5.5 -38.2°
Reaches altitude 10° 20:02:14 10° 306° (NW) 1,965 4.6 -38.6°
Enters shadow 20:02:46 12° 301° (WNW) 1,830 4.4 -38.7°
